GSAT-7A

Last updated on Wed Oct 29 2025 00:02:49 GMT+0000 (Coordinated Universal Time)

1 43864U 18105A 25300.41408595 .00000037 00000+0 00000+0 0 9994 2 43864 0.0393 258.7713 0002971 310.9009 38.2913 1.00273505 25114
UTC large
Height (km)
Speed (km/s)
/
Latitude / Longitude
Inclination (degrees)
Orbital Period (minutes)
Azimuth
Elevation
Range (km)
Doppler Factor

Next 0 passes for location: London (51.5072 / 0.1276)

Sorry there are no passes over London.